Time,TemperatureF,DewpointF,PressureIn,WindDirection,WindDirectionDegrees,WindSpeedMPH,WindSpeedGustMPH,Humidity,HourlyPrecipIn,Conditions,Clouds,dailyrainin,SolarRadiationWatts/m^2,SoftwareType,DateUTC
2017-07-21 00:00:00,71.2,70.6,29.88,NW,311,0.0,0.0,98,0.00,,,0.00,0,WeatherCatV2.42B15,2017-07-21 04:00:00,
2017-07-21 00:05:00,71.2,70.6,29.88,NW,311,0.0,0.0,98,0.00,,,0.00,0,WeatherCatV2.42B15,2017-07-21 04:05:00,
2017-07-21 00:10:00,71.3,70.7,29.88,NW,311,0.0,0.0,98,0.00,,,0.00,0,WeatherCatV2.42B15,2017-07-21 04:10:00,
2017-07-21 00:15:00,71.2,70.6,29.88,NW,311,0.0,0.0,98,0.00,,,0.00,0,WeatherCatV2.42B15,2017-07-21 04:15:00,
2017-07-21 00:20:00,71.2,70.6,29.88,NW,311,0.0,0.0,98,0.00,,,0.00,0,WeatherCatV2.42B15,2017-07-21 04:20:00,
2017-07-21 00:25:00,71.2,70.6,29.88,NW,311,0.0,0.0,98,0.00,,,0.00,0,WeatherCatV2.42B15,2017-07-21 04:25:00,
2017-07-21 00:30:00,71.1,70.5,29.89,NW,311,0.0,0.0,98,0.00,,,0.00,0,WeatherCatV2.42B15,2017-07-21 04:30:00,
2017-07-21 00:35:00,71.0,70.1,29.89,NW,311,0.0,0.0,97,0.00,,,0.00,0,WeatherCatV2.42B15,2017-07-21 04:35:00,
2017-07-21 00:40:00,70.9,70.0,29.89,NW,311,0.0,0.0,97,0.00,,,0.00,0,WeatherCatV2.42B15,2017-07-21 04:40:00,
2017-07-21 00:45:00,70.8,69.9,29.89,NW,311,0.0,0.0,97,0.00,,,0.00,0,WeatherCatV2.42B15,2017-07-21 04:45:00,
2017-07-21 00:50:00,70.7,69.8,29.89,NW,311,0.0,0.0,97,0.00,,,0.00,0,WeatherCatV2.42B15,2017-07-21 04:50:00,
2017-07-21 00:55:00,70.8,70.2,29.89,NW,311,0.0,0.0,98,0.00,,,0.00,0,WeatherCatV2.42B15,2017-07-21 04:55:00,
2017-07-21 01:00:00,70.8,70.2,29.88,NW,311,0.0,0.0,98,0.00,,,0.00,0,WeatherCatV2.42B15,2017-07-21 05:00:00,
2017-07-21 01:05:00,70.7,70.1,29.89,NW,311,0.0,0.0,98,0.00,,,0.00,0,WeatherCatV2.42B15,2017-07-21 05:05:00,
2017-07-21 01:10:00,70.7,70.1,29.89,NW,311,0.0,0.0,98,0.00,,,0.00,0,WeatherCatV2.42B15,2017-07-21 05:10:00,
2017-07-21 01:15:00,70.6,70.0,29.89,NW,311,0.0,0.0,98,0.00,,,0.00,0,WeatherCatV2.42B15,2017-07-21 05:15:00,
2017-07-21 01:20:00,70.7,70.1,29.89,NW,311,0.0,0.0,98,0.00,,,0.00,0,WeatherCatV2.42B15,2017-07-21 05:20:00,
2017-07-21 01:25:00,70.6,70.0,29.89,NW,311,0.0,0.0,98,0.00,,,0.00,0,WeatherCatV2.42B15,2017-07-21 05:25:00,
2017-07-21 01:30:00,70.6,70.0,29.89,NW,311,0.0,0.0,98,0.00,,,0.00,0,WeatherCatV2.42B15,2017-07-21 05:30:00,
2017-07-21 01:35:00,70.6,70.0,29.89,NW,311,0.0,0.0,98,0.00,,,0.00,0,WeatherCatV2.42B15,2017-07-21 05:35:00,
2017-07-21 01:40:00,70.6,70.0,29.89,NW,311,0.0,0.0,98,0.00,,,0.00,0,WeatherCatV2.42B15,2017-07-21 05:40:00,
2017-07-21 01:45:00,70.6,70.0,29.89,NW,311,0.0,0.0,98,0.00,,,0.00,0,WeatherCatV2.42B15,2017-07-21 05:45:00,
2017-07-21 01:50:00,70.6,70.0,29.89,NW,311,0.0,0.0,98,0.00,,,0.00,0,WeatherCatV2.42B15,2017-07-21 05:50:00,
2017-07-21 01:55:00,70.5,69.9,29.89,NW,311,0.0,0.0,98,0.00,,,0.00,0,WeatherCatV2.42B15,2017-07-21 05:55:00,
2017-07-21 02:00:00,70.5,69.9,29.89,NW,311,0.0,0.0,98,0.00,,,0.00,0,WeatherCatV2.42B15,2017-07-21 06:00:00,
2017-07-21 02:05:00,70.4,69.8,29.89,NW,311,0.0,0.0,98,0.00,,,0.00,0,WeatherCatV2.42B15,2017-07-21 06:05:00,
2017-07-21 02:10:00,70.4,69.8,29.89,NW,311,0.0,0.0,98,0.00,,,0.00,0,WeatherCatV2.42B15,2017-07-21 06:10:00,
2017-07-21 02:15:00,70.5,69.9,29.89,NW,311,0.0,0.0,98,0.00,,,0.00,0,WeatherCatV2.42B15,2017-07-21 06:15:00,
2017-07-21 02:20:00,70.4,69.8,29.89,NW,311,0.0,0.0,98,0.00,,,0.00,0,WeatherCatV2.42B15,2017-07-21 06:20:00,
2017-07-21 02:25:00,70.4,69.8,29.89,NW,311,0.0,0.0,98,0.00,,,0.00,0,WeatherCatV2.42B15,2017-07-21 06:25:00,
2017-07-21 02:30:00,70.3,69.7,29.89,NW,311,0.0,0.0,98,0.00,,,0.00,0,WeatherCatV2.42B15,2017-07-21 06:30:00,
2017-07-21 02:35:00,70.2,69.6,29.88,NW,311,0.0,0.0,98,0.00,,,0.00,0,WeatherCatV2.42B15,2017-07-21 06:35:00,
2017-07-21 02:40:00,70.2,69.6,29.88,NW,311,0.0,0.0,98,0.00,,,0.00,0,WeatherCatV2.42B15,2017-07-21 06:40:00,
2017-07-21 02:45:00,70.3,69.7,29.88,NW,311,0.0,0.0,98,0.00,,,0.00,0,WeatherCatV2.42B15,2017-07-21 06:45:00,
2017-07-21 02:50:00,70.3,69.7,29.88,NW,311,0.0,0.0,98,0.00,,,0.00,0,WeatherCatV2.42B15,2017-07-21 06:50:00,
2017-07-21 02:55:00,70.4,69.8,29.88,NW,311,0.0,0.0,98,0.00,,,0.00,0,WeatherCatV2.42B15,2017-07-21 06:55:00,
2017-07-21 03:00:00,70.4,69.8,29.88,NW,311,0.0,0.0,98,0.00,,,0.00,0,WeatherCatV2.42B15,2017-07-21 07:00:00,
2017-07-21 03:05:00,70.5,69.9,29.87,NW,311,0.0,0.0,98,0.00,,,0.00,0,WeatherCatV2.42B15,2017-07-21 07:05:00,
2017-07-21 03:10:00,70.6,70.0,29.88,NW,311,0.0,0.0,98,0.00,,,0.00,0,WeatherCatV2.42B15,2017-07-21 07:10:00,
2017-07-21 03:15:00,70.6,70.0,29.88,NW,311,0.0,0.0,98,0.00,,,0.00,0,WeatherCatV2.42B15,2017-07-21 07:15:00,
2017-07-21 03:20:00,70.5,69.9,29.88,NW,311,0.0,0.0,98,0.00,,,0.00,0,WeatherCatV2.42B15,2017-07-21 07:20:00,
2017-07-21 03:25:00,70.5,69.9,29.88,NW,311,0.0,0.0,98,0.00,,,0.00,0,WeatherCatV2.42B15,2017-07-21 07:25:00,
2017-07-21 03:30:00,70.5,69.9,29.88,NW,311,0.0,0.0,98,0.00,,,0.00,0,WeatherCatV2.42B15,2017-07-21 07:30:00,
2017-07-21 03:35:00,70.5,69.9,29.87,NW,311,0.0,0.0,98,0.00,,,0.00,0,WeatherCatV2.42B15,2017-07-21 07:35:00,
2017-07-21 03:40:00,70.4,69.8,29.87,NW,311,0.0,0.0,98,0.00,,,0.00,0,WeatherCatV2.42B15,2017-07-21 07:40:00,
2017-07-21 03:45:00,70.4,69.8,29.87,NW,311,0.0,0.0,98,0.00,,,0.00,0,WeatherCatV2.42B15,2017-07-21 07:45:00,
2017-07-21 03:50:00,70.4,69.8,29.87,NW,311,0.0,0.0,98,0.00,,,0.00,0,WeatherCatV2.42B15,2017-07-21 07:50:00,
2017-07-21 03:55:00,70.4,69.8,29.87,NW,311,0.0,0.0,98,0.00,,,0.00,0,WeatherCatV2.42B15,2017-07-21 07:55:00,
2017-07-21 04:00:00,70.2,69.6,29.88,NW,311,0.0,0.0,98,0.00,,,0.00,0,WeatherCatV2.42B15,2017-07-21 08:00:00,
2017-07-21 04:05:00,70.1,69.5,29.88,NW,311,0.0,0.0,98,0.00,,,0.00,0,WeatherCatV2.42B15,2017-07-21 08:05:00,
2017-07-21 04:10:00,70.1,69.5,29.88,NW,311,0.0,0.0,98,0.00,,,0.00,0,WeatherCatV2.42B15,2017-07-21 08:10:00,
2017-07-21 04:15:00,70.2,69.6,29.87,NW,311,0.0,0.0,98,0.00,,,0.00,0,WeatherCatV2.42B15,2017-07-21 08:15:00,
2017-07-21 04:20:00,70.1,69.5,29.87,NW,311,0.0,0.0,98,0.00,,,0.00,0,WeatherCatV2.42B15,2017-07-21 08:20:00,
2017-07-21 04:25:00,70.0,69.4,29.88,NW,311,0.0,0.0,98,0.00,,,0.00,0,WeatherCatV2.42B15,2017-07-21 08:25:00,
2017-07-21 04:30:00,69.9,69.3,29.87,NW,311,0.0,0.0,98,0.00,,,0.00,0,WeatherCatV2.42B15,2017-07-21 08:30:00,
2017-07-21 04:35:00,69.8,69.2,29.87,NW,311,0.0,0.0,98,0.00,,,0.00,0,WeatherCatV2.42B15,2017-07-21 08:35:00,
2017-07-21 04:40:00,69.8,69.2,29.87,NW,311,0.0,0.0,98,0.00,,,0.00,0,WeatherCatV2.42B15,2017-07-21 08:40:00,
2017-07-21 04:45:00,69.9,69.3,29.87,NW,311,0.0,0.0,98,0.00,,,0.00,0,WeatherCatV2.42B15,2017-07-21 08:45:00,
2017-07-21 04:50:00,69.8,69.2,29.88,NW,311,0.0,0.0,98,0.00,,,0.00,0,WeatherCatV2.42B15,2017-07-21 08:50:00,
2017-07-21 04:55:00,69.7,69.1,29.88,NW,311,0.0,0.0,98,0.00,,,0.00,0,WeatherCatV2.42B15,2017-07-21 08:55:00,
2017-07-21 05:00:00,69.7,69.1,29.88,NW,311,0.0,0.0,98,0.00,,,0.00,0,WeatherCatV2.42B15,2017-07-21 09:00:00,
2017-07-21 05:05:00,69.6,69.0,29.88,NW,311,0.0,0.0,98,0.00,,,0.00,0,WeatherCatV2.42B15,2017-07-21 09:05:00,
2017-07-21 05:10:00,69.6,69.0,29.88,NW,311,0.0,0.0,98,0.00,,,0.00,0,WeatherCatV2.42B15,2017-07-21 09:10:00,
2017-07-21 05:15:00,69.5,68.9,29.88,NW,311,0.0,0.0,98,0.00,,,0.00,0,WeatherCatV2.42B15,2017-07-21 09:15:00,
2017-07-21 05:20:00,69.5,68.9,29.88,NW,311,0.0,0.0,98,0.00,,,0.00,0,WeatherCatV2.42B15,2017-07-21 09:20:00,
2017-07-21 05:25:00,69.4,68.8,29.89,NW,311,0.0,0.0,98,0.00,,,0.00,0,WeatherCatV2.42B15,2017-07-21 09:25:00,
2017-07-21 05:30:00,69.4,68.8,29.88,NW,311,0.0,0.0,98,0.00,,,0.00,0,WeatherCatV2.42B15,2017-07-21 09:30:00,
2017-07-21 05:35:00,69.4,68.8,29.89,NW,311,0.0,0.0,98,0.00,,,0.00,0,WeatherCatV2.42B15,2017-07-21 09:35:00,
2017-07-21 05:40:00,69.4,68.8,29.88,NW,311,0.0,0.0,98,0.00,,,0.00,0,WeatherCatV2.42B15,2017-07-21 09:40:00,
2017-07-21 05:45:00,69.4,68.8,29.89,NW,311,0.0,0.0,98,0.00,,,0.00,0,WeatherCatV2.42B15,2017-07-21 09:45:00,
2017-07-21 05:50:00,69.4,68.8,29.89,NW,311,0.0,0.0,98,0.00,,,0.00,0,WeatherCatV2.42B15,2017-07-21 09:50:00,
2017-07-21 05:55:00,69.3,68.7,29.89,NW,311,0.0,0.0,98,0.00,,,0.00,0,WeatherCatV2.42B15,2017-07-21 09:55:00,
2017-07-21 06:00:00,69.3,68.7,29.88,NW,311,0.0,0.0,98,0.00,,,0.00,0,WeatherCatV2.42B15,2017-07-21 10:00:00,
2017-07-21 06:05:00,69.3,68.7,29.89,NW,311,0.0,0.0,98,0.00,,,0.00,0,WeatherCatV2.42B15,2017-07-21 10:05:00,
2017-07-21 06:10:00,69.2,68.6,29.88,NW,311,0.0,0.0,98,0.00,,,0.00,5,WeatherCatV2.42B15,2017-07-21 10:10:00,
2017-07-21 06:15:00,69.2,68.6,29.88,NW,311,0.0,0.0,98,0.00,,,0.00,5,WeatherCatV2.42B15,2017-07-21 10:15:00,
2017-07-21 06:20:00,69.2,68.6,29.88,NW,311,0.0,0.0,98,0.00,,,0.00,5,WeatherCatV2.42B15,2017-07-21 10:20:00,
2017-07-21 06:25:00,69.2,68.6,29.89,NW,311,0.0,0.0,98,0.00,,,0.00,5,WeatherCatV2.42B15,2017-07-21 10:25:00,
2017-07-21 06:30:00,69.2,68.6,29.89,NW,311,0.0,0.0,98,0.00,,,0.00,5,WeatherCatV2.42B15,2017-07-21 10:30:00,
2017-07-21 06:35:00,69.2,68.6,29.89,NW,311,0.0,0.0,98,0.00,,,0.00,7,WeatherCatV2.42B15,2017-07-21 10:35:00,
2017-07-21 06:40:00,69.2,68.6,29.89,NW,311,0.0,0.0,98,0.00,,,0.00,7,WeatherCatV2.42B15,2017-07-21 10:40:00,
2017-07-21 06:45:00,69.2,68.6,29.89,NW,311,0.0,0.0,98,0.00,,,0.00,5,WeatherCatV2.42B15,2017-07-21 10:45:00,
2017-07-21 06:50:00,69.2,68.6,29.89,NW,311,0.0,0.0,98,0.00,,,0.00,5,WeatherCatV2.42B15,2017-07-21 10:50:00,
2017-07-21 06:55:00,69.3,68.7,29.90,NW,311,0.0,0.0,98,0.00,,,0.00,5,WeatherCatV2.42B15,2017-07-21 10:55:00,
2017-07-21 07:00:00,69.4,68.8,29.90,NW,311,0.0,0.0,98,0.00,,,0.00,11,WeatherCatV2.42B15,2017-07-21 11:00:00,
2017-07-21 07:05:00,69.4,68.8,29.90,NW,311,0.0,0.0,98,0.00,,,0.00,16,WeatherCatV2.42B15,2017-07-21 11:05:00,
2017-07-21 07:10:00,69.5,68.9,29.91,NW,311,0.0,0.0,98,0.00,,,0.00,25,WeatherCatV2.42B15,2017-07-21 11:10:00,
2017-07-21 07:15:00,69.7,69.1,29.91,NW,311,0.0,0.0,98,0.00,,,0.00,21,WeatherCatV2.42B15,2017-07-21 11:15:00,
2017-07-21 07:20:00,69.8,69.5,29.91,NW,311,0.0,0.0,99,0.00,,,0.00,23,WeatherCatV2.42B15,2017-07-21 11:20:00,
2017-07-21 07:25:00,70.0,69.7,29.90,NW,311,0.0,0.0,99,0.00,,,0.00,16,WeatherCatV2.42B15,2017-07-21 11:25:00,
2017-07-21 07:30:00,70.3,70.0,29.90,NW,311,0.0,0.0,99,0.00,,,0.00,19,WeatherCatV2.42B15,2017-07-21 11:30:00,
2017-07-21 07:35:00,70.6,70.3,29.90,NW,311,0.0,0.0,99,0.00,,,0.00,28,WeatherCatV2.42B15,2017-07-21 11:35:00,
2017-07-21 07:40:00,71.0,70.7,29.91,NW,311,0.0,0.0,99,0.00,,,0.00,23,WeatherCatV2.42B15,2017-07-21 11:40:00,
2017-07-21 07:45:00,71.2,70.9,29.91,NW,311,0.0,0.0,99,0.00,,,0.00,28,WeatherCatV2.42B15,2017-07-21 11:45:00,
2017-07-21 07:50:00,71.4,71.1,29.91,NW,311,0.0,0.0,99,0.00,,,0.00,32,WeatherCatV2.42B15,2017-07-21 11:50:00,
2017-07-21 07:55:00,71.6,71.3,29.91,NW,311,0.0,0.0,99,0.00,,,0.00,32,WeatherCatV2.42B15,2017-07-21 11:55:00,
2017-07-21 08:00:00,71.8,71.5,29.91,NW,311,0.0,0.0,99,0.00,,,0.00,23,WeatherCatV2.42B15,2017-07-21 12:00:00,
2017-07-21 08:05:00,72.0,71.7,29.91,NW,311,0.0,0.0,99,0.00,,,0.00,16,WeatherCatV2.42B15,2017-07-21 12:05:00,
2017-07-21 08:16:00,72.2,71.9,29.91,NW,311,0.0,0.0,99,0.00,,,0.00,33,WeatherCatV2.42B15,2017-07-21 12:16:00,
2017-07-21 08:21:00,72.6,72.3,29.92,NW,311,0.0,0.0,99,0.00,,,0.00,32,WeatherCatV2.42B15,2017-07-21 12:21:00,
2017-07-21 08:26:00,72.7,72.4,29.92,NW,311,0.0,0.0,99,0.00,,,0.00,32,WeatherCatV2.42B15,2017-07-21 12:26:00,
2017-07-21 08:31:00,73.0,72.7,29.92,NW,311,0.0,0.0,99,0.00,,,0.00,35,WeatherCatV2.42B15,2017-07-21 12:31:00,
2017-07-21 08:36:00,73.1,72.8,29.92,NW,311,0.0,0.0,99,0.00,,,0.00,30,WeatherCatV2.42B15,2017-07-21 12:36:00,
2017-07-21 08:41:00,73.3,73.0,29.92,NW,311,0.0,0.0,99,0.00,,,0.00,32,WeatherCatV2.42B15,2017-07-21 12:41:00,
2017-07-21 08:46:00,73.4,73.1,29.92,NW,311,0.0,0.0,99,0.00,,,0.00,33,WeatherCatV2.42B15,2017-07-21 12:46:00,
2017-07-21 08:51:00,73.5,73.2,29.92,NW,311,0.0,0.0,99,0.00,,,0.00,33,WeatherCatV2.42B15,2017-07-21 12:51:00,
2017-07-21 08:56:00,73.7,73.4,29.92,NW,311,0.0,0.0,99,0.00,,,0.00,39,WeatherCatV2.42B15,2017-07-21 12:56:00,
2017-07-21 09:02:00,73.8,73.5,29.92,NW,311,0.0,0.0,99,0.00,,,0.00,26,WeatherCatV2.42B15,2017-07-21 13:02:00,
2017-07-21 09:07:00,74.0,73.7,29.92,NW,311,0.0,0.0,99,0.00,,,0.00,32,WeatherCatV2.42B15,2017-07-21 13:07:00,
2017-07-21 09:08:00,74.0,73.7,29.92,NW,311,0.0,0.0,99,0.00,,,0.00,33,WeatherCatV2.42B15,2017-07-21 13:08:00,
2017-07-21 09:13:00,74.2,73.9,29.91,NW,311,0.0,0.0,99,0.00,,,0.00,33,WeatherCatV2.42B15,2017-07-21 13:13:00,
2017-07-21 09:18:00,74.4,74.1,29.91,NW,311,0.0,0.0,99,0.00,,,0.00,23,WeatherCatV2.42B15,2017-07-21 13:18:00,
2017-07-21 09:23:00,74.5,74.2,29.92,NW,311,0.0,0.0,99,0.00,,,0.00,21,WeatherCatV2.42B15,2017-07-21 13:23:00,
2017-07-21 09:28:00,74.7,74.4,29.92,NW,311,0.0,0.0,99,0.00,,,0.00,30,WeatherCatV2.42B15,2017-07-21 13:28:00,